Regional Weather Roundup
Issued by NWS

Home | Current Version | Previous Version | Text Only | Print | Product List | Glossary On
Versions: 1 2 3 4 5 6 7 8 9 10 11 12 13 14 15 16 17 18 19 20 21 22 23 24 25 26 27 28 29 30 31 32 33 34 35 36 37 38 39 40 41 42 43 44 45 46 47 48 49 50
000
ASUS43 KTOP 201908
RWRKS

WEATHER ROUNDUP FOR KANSAS
NATIONAL WEATHER SERVICE GOODLAND KS
100 PM CST FRI JAN 20 2017

NOTE:  "FAIR" INDICATES FEW OR NO CLOUDS BELOW 12,000 FEET WITH NO
SIGNIFICANT WEATHER AND/OR OBSTRUCTIONS TO VISIBILITY.

KSZ001>006-013>018-027>032-041>047-202000-
NORTHWEST KANSAS

CITY           SKY/WX    TMP DP  RH WIND       PRES   REMARKS
GOODLAND       CLOUDY    33  30  88 CALM      29.40F
HAYS           CLOUDY    45  41  86 SW9       29.41F
HILL CITY      CLOUDY    43  40  89 S6        29.41F
RUSSELL        CLOUDY    46  43  89 S9        29.41F
$$

KSZ061>065-074>080-084>089-202000-
SOUTHWEST KANSAS

CITY           SKY/WX    TMP DP  RH WIND       PRES   REMARKS
DODGE CITY     CLOUDY    46  38  73 SW10      29.42F
ELKHART          N/A     53  30  41 W12         N/A
GARDEN CITY    PTSUNNY   43  38  82 VRB5      29.38F
GREAT BEND     LGT RAIN  45  44  97 S6        29.42F FOG
LIBERAL        SUNNY     52  41  66 S9        29.40F
PRATT          CLOUDY    42  41  97 SW8       29.42F
$$

KSZ066>073-081>083-090>101-202000-
SOUTHEAST KANSAS

CITY           SKY/WX    TMP DP  RH WIND       PRES   REMARKS
CHANUTE        CLOUDY    54  47  77 S10       29.45F
COFFEYVILLE    MOSUNNY   60  46  59 SW17G23   29.46F
HUTCHINSON     CLOUDY    49  46  90 S10       29.43F
MEDICINE LODGE   N/A     46  44  93 NW3       29.41F
NEWTON         CLOUDY    48  45  89 S12       29.44F
PARSONS        PTSUNNY   56  46  69 S13       29.46F
WICHITA INTL   CLOUDY    50  45  83 S7        29.43F HAZE
WICHITA JABRA  CLOUDY    51  45  79 SW8       29.43F
WICHITA MCCONL CLOUDY    50  44  79 SW7       29.43F
WINFIELD       CLOUDY    54  45  71 SW6       29.44F
$$

KSZ007>012-019>026-033>040-048>060-102>105-202000-
NORTHEAST KANSAS

CITY           SKY/WX    TMP DP  RH WIND       PRES   REMARKS
CONCORDIA      FOG       44  44 100 SE5       29.43F VSB 1/2
EMPORIA        CLOUDY    50  48  93 S9        29.45F FOG
LAWRENCE       CLOUDY    50  49  96 E10       29.47F FOG
MANHATTAN      CLOUDY    50  47  89 S9        29.44F
MARYSVILLE     CLOUDY    45  45 100 SE8       29.44F FOG
OLATHE IND     CLOUDY    52  48  86 SE7       29.46F
OLATHE EXE     CLOUDY    51  50  96 SE9       29.47F
SALINA         CLOUDY    46  46 100 S6        29.45F FOG
TOPEKA BILLARD FOG       48  46  93 E9        29.45F VSB 3/4
TOPEKA FORBES  FOG       49  48  97 E8        29.44F VSB 1/4
$$




USA.gov is the U.S. government's official web portal to all federal, state and local government web resources and services.